BEIDOU 7

Last updated on Oct. 23, 2020, 5:56 a.m. UTC

1 37256U 10068A   20296.19055537 -.00000206  00000-0  00000+0 0  9990
2 37256  51.2714 296.8289 0082099 215.5103  66.8803  1.00271545 36100
UTC
Height (km)
Latitude
Longitude
Inclination
Orbital Period
UTC large
Height (km)
Speed (km/s)
/
Latitude / Longitude
Inclination (degrees)
Orbital Period (minutes)
Azimuth
Elevation
Range (km)
Doppler Factor
iOS Compass Heading
iOS Angle

Next 30 passes for location: Hong Kong

Rise time Rise Azimuth (degrees) Set time Set Azimuth (degrees) Duration Max altitude (degrees)

No matching passes for this satellites